Roseburg, OR

5:29 AM PDT on September 23, 2017 (GMT -0700)
Roseburg Regional

Weather History for KRBG - January, 2013

Change the Weather History Date:

Sunday, January 20, 2013

  Actual Average Record
Temperature  
Mean Temperature 39 °F 43 °F  
Max Temperature 49 °F 50 °F 65 °F (2005)
Min Temperature 28 °F 37 °F 13 °F (1962)
Degree Days  
Heating Degree Days 26 22  
Month to date heating degree days 529 447  
Since 1 July heating degree days 1925 2087  
Cooling Degree Days 0 0  
Month to date cooling degree days 0 0  
Year to date cooling degree days 0 0  
Moisture  
Dew Point 31 °F    
Average Humidity 83    
Maximum Humidity 100    
Minimum Humidity 66    
Precipitation  
Precipitation 0.00 in 0.14 in 2.49 in (1943)
Month to date precipitation 0.73 3.78  
Year to date precipitation 0.73 3.78  
Sea Level Pressure  
Sea Level Pressure 30.30 in    
Wind  
Wind Speed 0 mph (SW)    
Max Wind Speed 5 mph    
Max Gust Speed 6 mph    
Visibility 4 miles    
Events Fog    
T = Trace of Precipitation, MM = Missing Value Source: NWS Daily Summary

Daily Weather History Graph

Daily Weather History Graph

Search for Another Location

Airport or City:

Trip Planner

Search our weather history database for the weather conditions in past years. The results will help you decide how hot, cold, wet, or windy it might be!

Date:

Astronomy

Jan. 20, 2013 Rise Set
Actual Time 7:39 AM PST 5:10 PM PST
Civil Twilight 7:08 AM PST 5:41 PM PST
Nautical Twilight 6:33 AM PST 6:16 PM PST
Astronomical Twilight 5:59 AM PST 6:50 PM PST
Moon 12:15 PM PST (1/20) 2:16 AM PST (1/20)
Length of Visible Light 10h 33m
Length of Day
9h 30m
Waxing Gibbous, 67% of the Moon is Illuminated
Jan 20
Waxing Gibbous
Jan 26
Full
Feb 3
Last Quarter
Feb 9
New
Feb 17
First Quarter

Hourly Weather History & Observations

Time (PST) Temp. Windchill Dew Point Humidity Pressure Visibility Wind Dir Wind Speed Gust Speed Precip Events Conditions
12:53 AM 30.9 °F - 30.9 °F 100% 30.34 in 0.2 mi Calm Calm - N/A Fog Light Freezing Fog
1:12 AM 30.2 °F - 30.2 °F 100% 30.32 in 0.2 mi Calm Calm - N/A Fog Light Freezing Fog
1:33 AM 30.2 °F - 30.2 °F 100% 30.32 in 0.2 mi Calm Calm - N/A Fog Light Freezing Fog
1:53 AM 30.0 °F - 30.0 °F 100% 30.34 in 0.2 mi Calm Calm - N/A Fog Light Freezing Fog
2:53 AM 30.0 °F - 28.9 °F 96% 30.34 in 0.2 mi Calm Calm - N/A Fog Light Freezing Fog
3:30 AM 30.2 °F - 28.4 °F 93% 30.32 in 0.2 mi Calm Calm - N/A Fog Light Freezing Fog
3:53 AM 28.9 °F - 28.9 °F 100% 30.34 in 0.2 mi Calm Calm - N/A Fog Light Freezing Fog
4:53 AM 28.9 °F - 28.0 °F 96% 30.33 in 0.2 mi Calm Calm - N/A Fog Light Freezing Fog
5:53 AM 28.0 °F - 28.0 °F 100% 30.33 in 0.2 mi Calm Calm - N/A Fog Light Freezing Fog
6:53 AM 28.0 °F - 28.0 °F 100% 30.33 in 0.2 mi Calm Calm - N/A Fog Light Freezing Fog
7:53 AM 28.0 °F - 28.0 °F 100% 30.33 in 0.2 mi Calm Calm - N/A Fog Light Freezing Fog
8:53 AM 28.9 °F - 28.0 °F 96% 30.34 in 0.2 mi Calm Calm - N/A Fog Light Freezing Fog
9:53 AM 28.9 °F 25.2 °F 28.9 °F 100% 30.35 in 0.2 mi SW 3.5 mph - N/A Fog Light Freezing Fog
10:49 AM 30.2 °F - 30.2 °F 100% 30.33 in 1.0 mi Calm Calm - N/A   Overcast
10:53 AM 30.9 °F - 30.9 °F 100% 30.35 in 0.8 mi Calm Calm - N/A   Overcast
11:15 AM 32.0 °F - 32.0 °F 100% 30.31 in 2.0 mi Calm Calm - N/A   Overcast
11:31 AM 32.0 °F 28.7 °F 30.2 °F 93% 30.31 in 0.8 mi SW 3.5 mph - N/A   Overcast
11:42 AM 33.8 °F - 32.0 °F 93% 30.31 in 1.5 mi Calm Calm - N/A   Mostly Cloudy
11:50 AM 33.8 °F - 32.0 °F 93% 30.30 in 3.0 mi Calm Calm - N/A   Mostly Cloudy
11:51 AM 33.1 °F - 32.0 °F 96% 30.32 in 3.0 mi Calm Calm - N/A   Mostly Cloudy
12:01 PM 33.8 °F - 32.0 °F 93% 30.29 in 2.5 mi Calm Calm - N/A   Scattered Clouds
12:12 PM 33.8 °F - 33.8 °F 100% 30.29 in 4.0 mi Calm Calm - N/A   Partly Cloudy
12:53 PM 39.0 °F - 35.1 °F 86% 30.28 in 10.0 mi Calm Calm - N/A   Clear
1:53 PM 45.0 °F - 37.0 °F 74% 30.25 in 10.0 mi Calm Calm - N/A   Clear
2:53 PM 46.9 °F - 37.9 °F 71% 30.24 in 10.0 mi Calm Calm - N/A   Clear
3:53 PM 48.0 °F - 37.9 °F 68% 30.22 in 10.0 mi Calm Calm - N/A   Clear
4:53 PM 46.0 °F - 37.9 °F 73% 30.21 in 10.0 mi Calm Calm - N/A   Clear
5:53 PM 41.0 °F - 36.0 °F 82% 30.21 in 10.0 mi Calm Calm - N/A   Clear
6:53 PM 37.0 °F - 35.1 °F 93% 30.24 in 10.0 mi Calm Calm - N/A   Clear
7:53 PM 36.0 °F - 33.1 °F 89% 30.25 in 8.0 mi Calm Calm - N/A   Clear
8:53 PM 33.1 °F - 30.9 °F 92% 30.26 in 6.0 mi Calm Calm - N/A   Clear
9:53 PM 32.0 °F - 30.0 °F 92% 30.26 in 6.0 mi Calm Calm - N/A   Clear
10:53 PM 30.9 °F - 28.9 °F 92% 30.27 in 5.0 mi Calm Calm - N/A   Clear
11:53 PM 30.0 °F - 28.0 °F 92% 30.27 in 5.0 mi Calm Calm - N/A   Clear